Winslow, AZ

3:40 AM MDT on September 25, 2016 (GMT -0600)
Winslow-Lindbergh Regional

Weather History for KINW - February, 2014

Change the Weather History Date:

Tuesday, February 4, 2014

  Actual Average Record
Temperature  
Mean Temperature 36 °F 38 °F  
Max Temperature 49 °F 53 °F 68 °F (2015)
Min Temperature 22 °F 23 °F -6 °F (1922)
Degree Days  
Heating Degree Days 29 27  
Month to date heating degree days 122 109  
Since 1 July heating degree days 2942 2912  
Cooling Degree Days 0 0  
Month to date cooling degree days 0 0  
Year to date cooling degree days 0 0  
Moisture  
Dew Point 20 °F    
Average Humidity 54    
Maximum Humidity 84    
Minimum Humidity 24    
Precipitation  
Precipitation 0.00 in 0.02 in 0.39 in (2008)
Month to date precipitation T 0.07  
Year to date precipitation T 0.59  
Sea Level Pressure  
Sea Level Pressure 29.96 in    
Wind  
Wind Speed 14 mph (SW)    
Max Wind Speed 29 mph    
Max Gust Speed 35 mph    
Visibility 10 miles    
Events      
T = Trace of Precipitation, MM = Missing Value Source: NWS Daily Summary

Daily Weather History Graph

Daily Weather History Graph

Search for Another Location

Airport or City:

Trip Planner

Search our weather history database for the weather conditions in past years. The results will help you decide how hot, cold, wet, or windy it might be!

Date:

Astronomy

Feb. 04, 2014 Rise Set
Actual Time 7:19 AM MST 5:54 PM MST
Civil Twilight 6:52 AM MST 6:21 PM MST
Nautical Twilight 6:22 AM MST 6:51 PM MST
Astronomical Twilight 5:53 AM MST 7:21 PM MST
Moon 10:13 AM MST (2/4) 11:36 PM MST (2/4)
Length of Visible Light 11h 28m
Length of Day
10h 35m
Waxing Crescent, 29% of the Moon is Illuminated
Feb 4
Waxing Crescent
Feb 6
First Quarter
Feb 14
Full
Feb 22
Last Quarter
Mar 1
New

Hourly Weather History & Observations

Time (MST) Temp. Windchill Dew Point Humidity Pressure Visibility Wind Dir Wind Speed Gust Speed Precip Events Conditions
12:56 AM 25.0 °F 16.3 °F 19.9 °F 81% 29.89 in 10.0 mi WSW 8.1 mph - N/A   Scattered Clouds
1:56 AM 25.0 °F 15.5 °F 19.9 °F 81% 29.90 in 10.0 mi SW 9.2 mph - N/A   Clear
2:56 AM 24.1 °F 16.0 °F 19.0 °F 81% 29.91 in 10.0 mi SW 6.9 mph - N/A   Mostly Cloudy
3:56 AM 26.1 °F 20.5 °F 19.9 °F 78% 29.92 in 10.0 mi NNW 4.6 mph - N/A   Overcast
4:56 AM 26.1 °F 17.6 °F 19.0 °F 75% 29.92 in 10.0 mi SW 8.1 mph - N/A   Partly Cloudy
5:56 AM 30.9 °F 20.2 °F 21.9 °F 69% 29.92 in 10.0 mi SW 15.0 mph - N/A   Overcast
6:56 AM 28.9 °F 19.2 °F 21.0 °F 72% 29.94 in 10.0 mi SW 11.5 mph - N/A   Overcast
7:56 AM 30.9 °F 20.2 °F 21.0 °F 67% 29.95 in 10.0 mi SW 15.0 mph - N/A   Overcast
8:56 AM 35.1 °F 26.4 °F 21.9 °F 59% 29.98 in 10.0 mi SW 12.7 mph - N/A   Scattered Clouds
9:56 AM 39.9 °F 31.8 °F 21.9 °F 49% 29.99 in 10.0 mi SW 15.0 mph - N/A   Clear
10:56 AM 41.0 °F 31.9 °F 19.0 °F 41% 30.00 in 10.0 mi West 19.6 mph - N/A   Mostly Cloudy
11:56 AM 45.0 °F 35.8 °F 16.0 °F 31% 29.98 in 10.0 mi West 26.5 mph 33.4 mph N/A   Scattered Clouds
12:56 PM 46.9 °F - 15.1 °F 28% 29.94 in 10.0 mi WSW 24.2 mph 33.4 mph N/A   Partly Cloudy
1:56 PM 46.9 °F - 14.0 °F 27% 29.92 in 10.0 mi WSW 19.6 mph 34.5 mph N/A   Clear
2:56 PM 48.9 °F - 14.0 °F 25% 29.91 in 10.0 mi WSW 24.2 mph 33.4 mph N/A   Mostly Cloudy
3:56 PM 48.0 °F - 15.1 °F 27% 29.91 in 10.0 mi SW 24.2 mph 32.2 mph N/A   Clear
4:56 PM 45.0 °F 36.9 °F 17.1 °F 33% 29.93 in 10.0 mi SW 20.7 mph - N/A   Clear
5:56 PM 42.1 °F 34.9 °F 19.9 °F 41% 29.94 in 10.0 mi SW 13.8 mph - N/A   Scattered Clouds
6:56 PM 37.9 °F 30.0 °F 21.9 °F 53% 29.99 in 10.0 mi SW 12.7 mph - N/A   Clear
7:56 PM 36.0 °F 28.5 °F 21.9 °F 57% 30.00 in 10.0 mi SW 10.4 mph - N/A   Clear
8:56 PM 36.0 °F 28.0 °F 23.0 °F 59% 30.01 in 10.0 mi SW 11.5 mph - N/A   Clear
9:56 PM 36.0 °F 28.5 °F 23.0 °F 59% 30.01 in 10.0 mi SW 10.4 mph - N/A   Clear
10:56 PM 34.0 °F - 23.0 °F 64% 30.04 in 10.0 mi Calm Calm - N/A   Clear
11:56 PM 30.9 °F 25.2 °F 21.9 °F 69% 30.05 in 10.0 mi ENE 5.8 mph - N/A   Clear